Date String (YYYY-MM-DD hh:mm:ss) UTC,Instrument flags,Ambient pressure (hPa),Sample flow (lpm),Bypass flow (lpm),Sample temperature (°C),Ambient temperature (°C),ASC tube jacket temperature (°C),LED temperature (°C),Box temperature (°C),Sample RH (%),Span deviation,Mass concentration (μg/m³),Mass concentration (μg/m³),Mass concentration (μg/m³)
DateTimeUTC,F1_M11,P_M11,Q1_M11,Q2_M11,T1_M11,T2_M11,T3_M11,T4_M11,T5_M11,U1_M11,ZSPAN_M11,X0_M11,X2_M11,X1_M11
2022-11-22 21:00:00,,0827.3,4.99,0.00,26.0,24.8,00.0,34.9,27.9,06.8,0000.0,0014.36,0004.39,0003.69
2022-11-22 21:01:00,,0827.1,5.00,0.00,26.0,24.8,00.0,34.9,27.9,06.7,0000.0,0013.50,0004.38,0003.71
2022-11-22 21:02:00,,0827.2,5.00,0.00,26.0,24.8,00.0,34.9,27.9,06.3,0000.0,0013.23,0004.37,0003.73
2022-11-22 21:03:00,,0827.3,5.00,0.00,26.0,24.8,00.0,34.9,27.9,06.5,0000.0,0012.70,0004.41,0003.77
2022-11-22 21:04:00,,0827.5,5.00,0.00,26.0,24.9,00.0,34.9,27.9,06.6,0000.0,0013.02,0004.42,0003.77
2022-11-22 21:05:00,,0827.5,5.00,0.00,26.0,24.8,00.0,34.9,27.9,06.2,0000.0,0013.67,0004.40,0003.77
2022-11-22 21:06:00,,0827.4,5.00,0.00,26.0,24.8,00.0,34.9,27.9,06.2,0000.0,0013.74,0004.41,0003.77
2022-11-22 21:07:00,,0827.5,5.01,0.00,26.1,24.8,00.0,34.9,27.9,06.6,0000.0,0013.72,0004.43,0003.77
2022-11-22 21:08:00,,0827.5,5.01,0.00,26.1,24.9,00.0,34.9,28.0,07.3,0000.0,0014.20,0004.43,0003.76
2022-11-22 21:09:00,,0827.4,5.00,0.00,26.1,24.9,00.0,34.9,28.0,07.1,0000.0,0014.59,0004.41,0003.75
2022-11-22 21:10:00,,0827.4,4.99,0.00,26.1,25.0,00.0,34.9,28.0,07.0,0000.0,0013.74,0004.36,0003.74
2022-11-22 21:11:00,,0827.4,4.99,0.00,26.1,25.0,00.0,34.9,28.0,06.8,0000.0,0012.99,0004.33,0003.72
2022-11-22 21:12:00,,0827.1,5.00,0.00,26.1,25.0,00.0,35.0,28.0,06.9,0000.0,0012.98,0004.29,0003.69
2022-11-22 21:13:00,,0827.0,5.00,0.00,26.1,25.0,00.0,35.0,28.0,07.1,0000.0,0013.08,0004.28,0003.67
2022-11-22 21:14:00,,0827.0,4.99,0.00,26.1,25.0,00.0,34.9,28.0,07.1,0000.0,0012.56,0004.26,0003.64
2022-11-22 21:15:00,,0827.0,5.00,0.00,26.2,25.0,00.0,35.0,28.0,07.1,0000.0,0012.69,0004.27,0003.63
2022-11-22 21:16:00,,0827.0,5.00,0.00,26.2,25.1,00.0,35.0,28.0,07.2,0000.0,0012.12,0004.25,0003.63
2022-11-22 21:17:00,,0827.2,5.01,0.00,26.2,25.1,00.0,35.0,28.1,07.3,0000.0,0012.01,0004.24,0003.62
2022-11-22 21:18:00,,0827.2,5.00,0.00,26.2,25.1,00.0,35.0,28.1,07.2,0000.0,0011.93,0004.22,0003.59
2022-11-22 21:19:00,,0827.1,5.00,0.00,26.2,25.1,00.0,35.0,28.1,07.6,0000.0,0011.08,0004.17,0003.56
2022-11-22 21:20:00,,0827.0,4.99,0.00,26.2,25.2,00.0,35.0,28.1,07.3,0000.0,0010.17,0004.16,0003.53
2022-11-22 21:21:00,,0827.0,5.00,0.00,26.2,25.2,00.0,35.0,28.2,07.4,0000.0,0010.56,0004.12,0003.51
2022-11-22 21:22:00,,0827.0,5.00,0.00,26.3,25.2,00.0,35.1,28.2,07.3,0000.0,0011.24,0004.05,0003.47
2022-11-22 21:23:00,,0827.1,5.00,0.00,26.3,25.2,00.0,35.1,28.2,07.2,0000.0,0010.58,0004.02,0003.44
2022-11-22 21:24:00,,0827.0,5.00,0.00,26.3,25.1,00.0,35.1,28.2,07.0,0000.0,0010.08,0003.98,0003.42
2022-11-22 21:25:00,,0827.0,5.00,0.00,26.3,25.2,00.0,35.1,28.2,07.1,0000.0,0009.97,0003.93,0003.38
2022-11-22 21:26:00,,0827.0,5.01,0.00,26.3,25.2,00.0,35.1,28.2,07.7,0000.0,0009.52,0003.84,0003.33
2022-11-22 21:27:00,,0827.0,5.01,0.00,26.3,25.2,00.0,35.1,28.2,07.9,0000.0,0009.24,0003.79,0003.27
2022-11-22 21:28:00,,0827.0,4.98,0.00,26.3,25.2,00.0,35.1,28.2,07.7,0000.0,0009.16,0003.73,0003.22
2022-11-22 21:29:00,,0827.0,5.00,0.00,26.3,25.2,00.0,35.1,28.2,07.6,0000.0,0008.99,0003.68,0003.18
2022-11-22 21:30:00,,0827.0,5.01,0.00,26.3,25.2,00.0,35.1,28.2,08.0,0000.0,0009.15,0003.70,0003.16
2022-11-22 21:31:00,,0826.9,5.01,0.00,26.3,25.2,00.0,35.1,28.2,08.0,0000.0,0009.78,0003.70,0003.14
2022-11-22 21:32:00,,0826.9,5.00,0.00,26.3,25.2,00.0,35.1,28.2,07.5,0000.0,0009.92,0003.70,0003.12
2022-11-22 21:33:00,,0827.0,4.99,0.00,26.4,25.2,00.0,35.2,28.2,07.5,0000.0,0009.30,0003.67,0003.07
2022-11-22 21:34:00,,0827.0,4.99,0.00,26.4,25.2,00.0,35.2,28.2,07.6,0000.0,0010.48,0003.64,0003.02
2022-11-22 21:35:00,,0827.0,4.99,0.00,26.4,25.2,00.0,35.2,28.2,07.8,0000.0,0010.86,0003.63,0002.98
2022-11-22 21:36:00,,0827.0,5.00,0.00,26.4,25.2,00.0,35.2,28.2,07.8,0000.0,0010.82,0003.63,0002.95
2022-11-22 21:37:00,,0827.1,5.01,0.00,26.4,25.2,00.0,35.2,28.3,08.1,0000.0,0010.65,0003.62,0002.91
2022-11-22 21:38:00,,0826.9,5.01,0.00,26.4,25.2,00.0,35.2,28.2,07.8,0000.0,0010.08,0003.60,0002.87
2022-11-22 21:39:00,,0826.9,5.01,0.00,26.4,25.3,00.0,35.2,28.3,07.5,0000.0,0010.02,0003.57,0002.83
2022-11-22 21:40:00,,0826.9,4.98,0.00,26.4,25.3,00.0,35.2,28.3,07.8,0000.0,0009.88,0003.50,0002.78
2022-11-22 21:41:00,,0826.9,5.00,0.00,26.4,25.3,00.0,35.2,28.3,07.6,0000.0,0009.58,0003.43,0002.74
2022-11-22 21:42:00,,0826.9,5.01,0.00,26.4,25.3,00.0,35.2,28.3,07.5,0000.0,0008.81,0003.34,0002.67
2022-11-22 21:43:00,,0826.9,5.01,0.00,26.4,25.3,00.0,35.2,28.3,07.8,0000.0,0008.80,0003.33,0002.62
2022-11-22 21:44:00,,0826.9,5.00,0.00,26.4,25.3,00.0,35.2,28.3,07.6,0000.0,0009.25,0003.33,0002.59
2022-11-22 21:45:00,,0826.9,5.00,0.00,26.4,25.4,00.0,35.3,28.3,07.8,0000.0,0008.42,0003.35,0002.57
2022-11-22 21:46:00,,0826.9,4.98,0.00,26.5,25.4,00.0,35.3,28.3,07.9,0000.0,0008.29,0003.33,0002.52
2022-11-22 21:47:00,,0826.9,5.00,0.00,26.5,25.4,00.0,35.3,28.4,08.3,0000.0,0008.18,0003.28,0002.49
2022-11-22 21:48:00,,0826.9,5.00,0.00,26.5,25.3,00.0,35.3,28.4,08.0,0000.0,0008.53,0003.24,0002.45
2022-11-22 21:49:00,,0826.9,5.00,0.00,26.5,25.3,00.0,35.3,28.4,07.6,0000.0,0008.47,0003.22,0002.44
2022-11-22 21:50:00,,0826.9,5.01,0.00,26.5,25.3,00.0,35.3,28.4,07.6,0000.0,0008.90,0003.20,0002.42
2022-11-22 21:51:00,,0826.9,5.00,0.00,26.5,25.3,00.0,35.3,28.3,07.7,0000.0,0009.07,0003.23,0002.41
2022-11-22 21:52:00,,0826.8,5.01,0.00,26.5,25.2,00.0,35.3,28.3,07.8,0000.0,0009.15,0003.22,0002.40
2022-11-22 21:53:00,,0826.9,5.00,0.00,26.5,25.2,00.0,35.3,28.3,07.8,0000.0,0009.20,0003.22,0002.40
2022-11-22 21:54:00,,0826.9,5.00,0.00,26.5,25.2,00.0,35.3,28.4,07.7,0000.0,0009.97,0003.22,0002.40
2022-11-22 21:55:00,,0827.0,5.00,0.00,26.5,25.2,00.0,35.3,28.4,07.7,0000.0,0009.43,0003.21,0002.39
2022-11-22 21:56:00,,0827.0,5.00,0.00,26.5,25.2,00.0,35.3,28.4,07.8,0000.0,0009.17,0003.20,0002.37
2022-11-22 21:57:00,,0827.0,4.99,0.00,26.5,25.3,00.0,35.3,28.4,08.0,0000.0,0008.64,0003.17,0002.36
2022-11-22 21:58:00,,0826.9,4.99,0.00,26.5,25.3,00.0,35.3,28.4,08.0,0000.0,0008.70,0003.16,0002.34
2022-11-22 21:59:00,,0826.8,5.01,0.00,26.5,25.3,00.0,35.3,28.4,07.6,0000.0,0008.43,0003.18,0002.34
